Retour au catalogue

STARLINK-35768

ActifCommunicationsVLEO
NORAD 66832·PAYLOAD·🇺🇸 United States

Lancé Dec 2, 2025 depuis Vandenberg Space Force Base

Loading…

Prochains Passages (prochaines 24 heures)

TLE

FraisSource: CelesTrak SupGP

Époque: Sep 15, 2026, 04:17 UTC

1 66832C 25280M   26258.17895833  .00004824  00000+0  40431-3 0  2589
2 66832  70.0010 216.7467 0003417 268.6094 247.5449 14.98324933    10

Suivez STARLINK-35768 en temps réel avec AllMySat

Download on the App Store